Content
SEND FEEDBACK

Daily
Averages
Monthly
Summary
United States of America

FONTANELLE, IOWA


Home > North America > United States > Iowa
Elevation: 407 meters     Latitude: 41 17N     Longitude: 094 28W

WEATHER
 
SELECT A DAY
Number of Records: 416,440;   Date Range: 4/23/95 - 7/23/14
 
SHARE

PRINT THIS DATA

[ ← Previous Day ]
WEATHER ALMANAC - 31 JANUARY, 2013
[ Next Day → ]
[ °F ]   °C
Weather ElementAverageHighLow
Temperature-14.6 °C-9 °C (12:35 am)-19 °C (11:56 pm)
Dewpoint-20.1 °C-13 °C (12:35 am)-24 °C (9:36 pm)
Humidity63.8 %79 % (1:15 am)56 % (7:15 am)
Barometer1019.6 hPa1028.1 hPa (11:36 pm)1011.9 hPa (12:35 am)
Wind Speed28.2 km/h42.6 km/h (1:15 pm)
Wind Gust57.5 km/h (2:15 pm)
Weather ElementAverage
Visibility14.2 km
Wind DirectionWNW (295.7 °)

Weather ElementTotal
Precipitation---
Heating Degree Days32.3 (Base 18.3)
Averaged from 69 records on 31 January, 2013
WEATHER CONDITIONS BREAKOUT
WIND DIRECTION BREAKOUT
WEATHER BY HOUR - 31 JANUARY, 2013
[ °F ]   °C
Local TimeTemperatureDewpointHumidityBarometerVisibilityWind DirectionWind SpeedGust SpeedPrecipitationEventsConditions
12:35 AM-9 °C-13 °C73 %1011.9 hPa16.1 kmWest (270°)16.7 km/hSnowLight Snow
12:55 AM-10 °C-14 °C73 %1011.9 hPa16.1 kmWest (270°)16.7 km/hMostly Cloudy
1:15 AM-11 °C-14 °C79 %1011.9 hPa16.1 kmWest (270°)16.7 km/hScattered Clouds
1:35 AM-11 °C-14 °C79 %1011.9 hPa16.1 kmWest (270°)16.7 km/hClear
1:55 AM-12 °C-15 °C79 %1012.2 hPa16.1 kmWest (270°)13 km/hClear
2:15 AM-12 °C-15 °C79 %1012.2 hPa16.1 kmWest (270°)16.7 km/hScattered Clouds
2:35 AM-13 °C-16 °C79 %1012.5 hPa16.1 kmWest (280°)14.8 km/hScattered Clouds
2:55 AM-13 °C-16 °C79 %1012.5 hPa16.1 kmWest (270°)16.7 km/hScattered Clouds
3:15 AM-13 °C-16 °C79 %1012.5 hPa16.1 kmWest (280°)13 km/hMostly Cloudy
3:35 AM-14 °C-17 °C79 %1012.5 hPa16.1 kmWest (280°)20.4 km/hOvercast
3:55 AM-13 °C-17 °C73 %1012.5 hPa16.1 kmWNW (290°)22.2 km/hMostly Cloudy
4:15 AM-13 °C-17 °C73 %1012.5 hPa16.1 kmWNW (290°)18.5 km/hMostly Cloudy
4:35 AM-13 °C-17 °C73 %1012.9 hPa16.1 kmWNW (290°)18.5 km/hScattered Clouds
4:55 AM-13 °C-17 °C73 %1012.9 hPa16.1 kmWNW (300°)22.2 km/hMostly Cloudy
5:15 AM-13 °C-17 °C73 %1012.9 hPa16.1 kmWNW (300°)25.9 km/h35.2 km/hMostly Cloudy
5:35 AM-13 °C-18 °C67 %1013.5 hPa16.1 kmWNW (290°)24.1 km/hOvercast
5:55 AM-14 °C-19 °C67 %1013.5 hPa16.1 kmWNW (300°)38.9 km/h51.8 km/hOvercast
6:15 AM-14 °C-19 °C67 %1014.2 hPa16.1 kmWNW (290°)29.6 km/h42.6 km/hOvercast
6:35 AM-14 °C-19 °C67 %1014.6 hPa16.1 kmWNW (300°)27.8 km/hMostly Cloudy
6:55 AM-14 °C-20 °C61 %1014.9 hPa16.1 kmWNW (300°)27.8 km/h37 km/hMostly Cloudy
7:15 AM-14 °C-21 °C56 %1014.9 hPa16.1 kmWNW (300°)27.8 km/hMostly Cloudy
7:35 AM-15 °C-21 °C61 %1015.2 hPa16.1 kmWNW (300°)33.3 km/hScattered Clouds
7:55 AM-14 °C-21 °C56 %1015.6 hPa16.1 kmWNW (300°)25.9 km/h38.9 km/hMostly Cloudy
8:15 AM-14 °C-21 °C56 %1015.9 hPa16.1 kmNW (310°)25.9 km/h31.5 km/hOvercast
8:35 AM-14 °C-21 °C56 %1016.6 hPa16.1 kmNW (310°)22.2 km/h33.3 km/hOvercast
8:55 AM-14 °C-21 °C56 %1016.9 hPa16.1 kmWNW (300°)29.6 km/h38.9 km/hOvercast
9:15 AM-14 °C-21 °C56 %1017.3 hPa16.1 kmNW (310°)33.3 km/h40.7 km/hScattered Clouds
9:35 AM-14 °C-21 °C56 %1017.6 hPa16.1 kmNW (310°)33.3 km/h40.7 km/hClear
9:55 AM-14 °C-21 °C56 %1018.3 hPa16.1 kmWNW (300°)37 km/h44.4 km/hClear
10:15 AM-14 °C-21 °C56 %1019 hPa16.1 kmWNW (300°)40.7 km/h51.8 km/hMostly Cloudy
10:35 AM-14 °C-21 °C56 %1019.6 hPa16.1 kmWNW (300°)31.5 km/h42.6 km/hOvercast
10:55 AM-14 °C-20 °C61 %1020 hPa16.1 kmNW (310°)37 km/h48.1 km/hOvercast
11:15 AM-14 °C-19 °C67 %1020.3 hPa4 kmNW (310°)35.2 km/h46.3 km/hHaze
11:35 AM-14 °C-19 °C67 %1020.7 hPa2.9 kmNW (310°)35.2 km/h50.1 km/hHaze
11:55 AM-14 °C-20 °C61 %1020.7 hPa3.2 kmNW (320°)38.9 km/h53.8 km/hHaze
12:15 PM-14 °C-20 °C61 %1020.7 hPa3.2 kmNW (310°)35.2 km/h50.1 km/hHaze
12:35 PM-14 °C-19 °C67 %1021 hPa3.2 kmNW (310°)33.3 km/h46.3 km/hHaze
12:55 PM-14 °C-20 °C61 %1021.3 hPa6.4 kmWNW (300°)38.9 km/h53.8 km/hHaze
1:15 PM-14 °C-20 °C61 %1021.3 hPa4.8 kmWNW (300°)42.6 km/h51.8 km/hHaze
1:35 PM-14 °C-21 °C56 %1021.7 hPa6.4 kmWNW (300°)37 km/h53.8 km/hHaze
1:55 PM-14 °C-20 °C61 %1021.7 hPa8 kmWNW (300°)42.6 km/h53.8 km/hHaze
2:15 PM-14 °C-21 °C56 %1022 hPa6.4 kmWNW (290°)42.6 km/h57.5 km/hHaze
2:35 PM-14 °C-20 °C61 %1022.4 hPa11.3 kmWNW (300°)37 km/h51.8 km/hOvercast
2:55 PM-14 °C-21 °C56 %1022.7 hPa16.1 kmWNW (290°)35.2 km/h53.8 km/hMostly Cloudy
3:15 PM-14 °C-21 °C56 %1022.7 hPa11.3 kmWNW (290°)40.7 km/h53.8 km/hMostly Cloudy
3:35 PM-15 °C-21 °C61 %1023.4 hPa11.3 kmWNW (300°)37 km/h51.8 km/hScattered Clouds
3:55 PM-15 °C-21 °C61 %1023.4 hPa16.1 kmWNW (300°)38.9 km/h48.1 km/hScattered Clouds
4:15 PM-15 °C-21 °C61 %1023.7 hPa11.3 kmWNW (300°)38.9 km/h51.8 km/hClear
4:35 PM-16 °C-22 °C61 %1024 hPa16.1 kmWNW (300°)33.3 km/h51.8 km/hClear
4:55 PM-16 °C-22 °C61 %1024 hPa16.1 kmWNW (300°)38.9 km/h44.4 km/hClear
5:15 PM-16 °C-22 °C61 %1024.4 hPa16.1 kmWNW (300°)31.5 km/h40.7 km/hClear
5:35 PM-16 °C-22 °C61 %1024.7 hPa16.1 kmNW (310°)24.1 km/h42.6 km/hClear
5:55 PM-16 °C-22 °C61 %1024.7 hPa16.1 kmNW (310°)25.9 km/hClear
6:15 PM-16 °C-22 °C61 %1025.1 hPa16.1 kmWNW (300°)27.8 km/h37 km/hClear
6:35 PM-16 °C-22 °C61 %1025.4 hPa16.1 kmWNW (300°)25.9 km/hClear
6:55 PM-16 °C-22 °C61 %1025.7 hPa16.1 kmWNW (300°)27.8 km/hClear
7:15 PM-17 °C-23 °C61 %1025.7 hPa16.1 kmWNW (300°)27.8 km/hClear
7:35 PM-17 °C-23 °C61 %1026.1 hPa16.1 kmWNW (300°)24.1 km/hClear
8:15 PM-17 °C-23 °C61 %1026.4 hPa16.1 kmWNW (290°)24.1 km/hClear
8:35 PM-17 °C-23 °C61 %1026.8 hPa16.1 kmWNW (290°)27.8 km/h37 km/hClear
8:55 PM-17 °C-23 °C61 %1026.8 hPa16.1 kmWNW (300°)25.9 km/h37 km/hClear
9:36 PM-17 °C-24 °C56 %1026.8 hPa16.1 kmNW (310°)24.1 km/h31.5 km/hClear
9:56 PM-18 °C-24 °C60 %1026.8 hPa16.1 kmWNW (300°)25.9 km/hClear
10:16 PM-18 °C-24 °C60 %1026.8 hPa16.1 kmWNW (300°)24.1 km/h33.3 km/hClear
10:36 PM-18 °C-24 °C60 %1027.4 hPa16.1 kmWNW (290°)25.9 km/h33.3 km/hClear
10:56 PM-18 °C-24 °C60 %1027.4 hPa16.1 kmWNW (300°)25.9 km/hClear
11:16 PM-18 °C-24 °C60 %1027.8 hPa16.1 kmWest (280°)22.2 km/hClear
11:36 PM-18 °C-24 °C60 %1028.1 hPa16.1 kmWest (270°)11.1 km/hClear
11:56 PM-19 °C-24 °C66 %1028.1 hPa16.1 kmWNW (290°)16.7 km/hClear
Hourly data recorded from KCSQ, located 0 kilometers away from Fontanelle, Iowa







STORIES FROM OUR PARTNERS